Location: Igon
(43.1667°N, 0.2333°W)
Time: 14:47:26
(UTC+00:00)

SL-4 R/B - Pass Details

Date: 29 November 2020
Orbit: 428 x 664 km, 51.6° (Epoch: 22 January)

Event Time Altitude Azimuth Distance (km) Brightness Sun altitude
Exits shadow 05:51:21 18° 327° (NNW) 1,311 3.5 -14.2°
Maximum altitude 05:52:58 23° 2° (N) 1,104 3.4 -13.9°
Drops below altitude 10° 05:55:57 10° 56° (NE) 1,642 5.0 -13.4°
Sets 05:58:22 0° 72° (ENE) 2,481 6.3 -13.0°
